Regional Weather Roundup
Issued by NWS Bismarck, ND

Home | Current Version | Previous Version | Text Only | Print | Product List | Glossary On
Versions: 1 2 3 4 5 6 7 8 9 10 11 12 13 14 15 16 17 18 19 20 21 22 23 24 25 26 27 28 29 30 31 32 33 34 35 36 37 38 39 40 41 42 43 44 45 46 47 48 49 50
764
ASUS43 KBIS 280402
RWRBIS

NWR BROADCAST TEXT
NATIONAL WEATHER SERVICE BISMARCK ND
1100 PM CDT THU APR 27 2017

NOTE: "FAIR" INDICATES FEW OR NO CLOUDS BELOW 12,000 FEET WITH NO
SIGNIFICANT WEATHER AND/OR OBSTRUCTIONS TO VISIBILITY.


CITY           SKY/WX    TMP DP  RH WIND       PRES   REMARKS
WILLISTON      FAIR      40  16  37 E8        29.83R
MINOT          FAIR      36  26  67 NE7       29.84R
MINOT AFB      FAIR      40  26  56 NE9       29.84R
BISMARCK       FAIR      39  25  57 NE8       29.82R
DICKINSON      FAIR      34  17  50 NE7       29.78R
GARRISON         N/A     35  23  61 NE6       29.82R
HETTINGER ARPT FAIR      33  24  69 NE8       29.79R
JAMESTOWN      MOCLDY    40  29  64 N10       29.81R
HAZEN          FAIR      36  21  55 E6        29.83R
LINTON           N/A     34  27  75 E5        29.82R
MANDAN         FAIR      37  23  56 NE7       29.82R
STANLEY        FAIR      36  23  60 NE5       29.87R
TIOGA          FAIR      28  14  54 E5        29.86R
WATFORD CITY   FAIR      32  18  55 E7        29.82R
$$

CITY           SKY/WX    TMP DP  RH WIND       PRES   REMARKS
GRAND FORKS    MOCLDY    35  29  78 N7        29.81R
GRAND FORKS AF FAIR      31  28  87 N6        29.82R
DEVILS LAKE    CLOUDY    39  29  67 NE7       29.84R
FARGO          CLOUDY    37  30  75 NW6       29.79R
CAVALIER       FAIR      32  28  86 W6        29.81R
GRAFTON        CLOUDY    32  30  93 NW7       29.83R
GWINNER        MOCLDY    39  34  81 MISG      29.80R
LANGDON        FAIR      28  27  93 W3        29.82R
ROLLA          CLOUDY    32  27  80 NW7       29.85R
$$

CITY           SKY/WX    TMP DP  RH WIND       PRES   REMARKS
ABERDEEN       FAIR      30  26  85 CALM      29.81R
MOBRIDGE       FAIR      43  22  43 NE14      29.77R
BUFFALO          N/A     39  27  62 E12       29.70R
RAPID CITY     CLOUDY    41  31  67 E8        29.73R
GLASGOW        CLOUDY    47  17  30 E13       29.78R
SIDNEY         FAIR      38  19  46 N6        29.82R
WOLF POINT     FAIR      37  18  46 NE6       29.81R
GLENDIVE       FAIR      39  24  55 E7        29.79R
MILES CITY     FAIR      45  25  45 E5        29.74R
BAKER          FAIR      36  26  67 E7        29.77R
$$

CITY           SKY/WX    TMP DP  RH WIND       PRES   REMARKS
BILLINGS       LGT RAIN  40  38  93 N7        29.78R
GREAT FALLS    CLOUDY    39  35  86 CALM      29.85R
$$





USA.gov is the U.S. government's official web portal to all federal, state and local government web resources and services.